Location: Fauquembergues
(50.6005°N, 2.0987°E)
Time: 08:44:53
(UTC+00:00)

Cosmos 1666 Rocket - Pass Details

Date: 14 July 2020
Orbit: 603 x 633 km, 82.5° (Epoch: 14 August)

Event Time Altitude Azimuth Distance (km) Brightness Sun altitude
Exits shadow 00:23:49 35° 200° (SSW) 993 4.1 -17.5°
Maximum altitude 00:25:35 77° 281° (W) 636 3.5 -17.5°
Drops below altitude 10° 00:29:58 10° 8° (N) 1,978 7.5 -17.4°
Sets 00:32:12 0° 10° (N) 2,883 8.8 -17.4°
